Location: Newark
(54.2500°N, 9.1833°E)
Time: 01:51:03
(UTC+00:00)

Transit 2A Rocket - Visible Passes

Search period start: 11 December 2019 00:00
Search period end: 21 December 2019 00:00
Orbit: 594 x 909 km, 66.7° (Epoch: 09 December)

Date Brightness Start Highest point End Pass type
(mag) Time Alt. Az. Time Alt. Az. Time Alt. Az.
11 Dec 5.2 15:35:29 10° S 15:39:41 40° ESE 15:43:44 10° NE visible
11 Dec 5.4 17:18:01 10° WSW 17:22:13 42° NW 17:24:12 26° NNE visible
11 Dec 7.2 19:02:47 10° WNW 19:04:06 15° NW 19:04:06 15° NW visible
12 Dec 4.9 16:35:10 10° SW 16:39:34 61° NW 16:42:51 17° NE visible
12 Dec 6.5 18:19:34 10° WNW 18:22:45 21° NNW 18:22:45 21° NNW visible
13 Dec 4.5 15:52:32 10° SW 15:56:59 87° SE 16:01:20 10° NE visible
13 Dec 6.1 17:36:21 10° W 17:40:02 26° NNW 17:41:23 22° N visible
13 Dec 7.6 19:21:13 10° NW 19:21:17 10° NW 19:21:17 10° NW visible
14 Dec 5.7 16:53:14 10° W 16:57:15 34° NNW 16:59:59 17° NNE visible
14 Dec 6.9 18:38:08 10° NW 18:39:53 16° NNW 18:39:53 16° NNW visible
15 Dec 5.2 16:10:17 10° WSW 16:14:32 47° NW 16:18:35 11° NE visible
15 Dec 6.4 17:54:55 10° WNW 17:58:03 19° NNW 17:58:29 19° N visible
16 Dec 6.3 17:11:42 10° WNW 17:15:09 22° NNW 17:17:04 17° NNE visible
16 Dec 7.3 18:56:24 10° NW 18:56:58 12° NNW 18:56:58 12° NNW visible
17 Dec 6.0 16:28:31 10° W 16:32:18 28° NNW 16:35:39 12° NNE visible
17 Dec 6.7 18:13:25 10° NW 18:15:33 16° NNW 18:15:33 16° NNW visible
18 Dec 5.5 15:45:27 10° WSW 15:49:33 37° NW 15:53:36 10° NNE visible
18 Dec 6.4 17:30:17 10° NW 17:33:14 18° N 17:34:08 17° N visible
19 Dec 6.4 16:47:04 10° WNW 16:50:18 20° NNW 16:52:42 13° NNE visible
19 Dec 7.0 18:31:29 10° NNW 18:32:36 14° NNW 18:32:36 14° NNW visible
20 Dec 6.1 16:03:51 10° W 16:07:24 24° NNW 16:10:59 10° NNE visible
20 Dec 6.6 17:48:37 10° NW 17:51:10 16° N 17:51:10 16° N visible
